This is the latest recevied weather packets stored in our database for station/object DL1SEW-6. If no packets are shown the sender has not sent any weather packets the latest 10 day(s).
| Time | Temp. | Humidity | Pressure | Rain* | Wind** | Luminosity | Snow |
|---|---|---|---|---|---|---|---|
| 1777870509 | 10.56° C | 72% | 1013.3 hPa | 0 mm | - | 85 W/m² | - |
| 1777869613 | 10° C | 72% | 1013.3 hPa | 0 mm | - | 63 W/m² | - |
| 1777868713 | 10.56° C | 70% | 1013.1 hPa | 0 mm | - | 23 W/m² | - |
| 1777867813 | 10.56° C | 69% | 1013.1 hPa | 0 mm | - | 2 W/m² | - |
| 1777866913 | 9.44° C | 72% | 1013 hPa | 0 mm | - | 0 W/m² | - |
| 1777866013 | 8.89° C | 73% | 1013.1 hPa | 0 mm | - | 0 W/m² | - |
| 1777865112 | 9.44° C | 73% | 1013.2 hPa | 0 mm | - | 0 W/m² | - |
| 1777864212 | 10° C | 72% | 1013.5 hPa | 0 mm | - | 0 W/m² | - |
| 1777863312 | 10.56° C | 71% | 1013.4 hPa | 0 mm | - | 0 W/m² | - |
| 1777862413 | 11.11° C | 71% | 1013.7 hPa | 0 mm | - | 0 W/m² | - |
| 1777861514 | 11.67° C | 70% | 1013.8 hPa | 0 mm | - | 0 W/m² | - |
| 1777860611 | 11.67° C | 69% | 1013.8 hPa | 0 mm | - | 0 W/m² | - |
| 1777859711 | 12.22° C | 69% | 1013.8 hPa | 0 mm | - | 0 W/m² | - |
| 1777858811 | 12.22° C | 68% | 1013.8 hPa | 0 mm | - | 0 W/m² | - |
| 1777857911 | 12.22° C | 67% | 1013.7 hPa | 0 mm | - | 0 W/m² | - |
| 1777857011 | 12.22° C | 68% | 1013.8 hPa | 0 mm | - | 0 W/m² | - |
| 1777856111 | 12.78° C | 69% | 1013.6 hPa | 0 mm | - | 0 W/m² | - |
| 1777855211 | 12.78° C | 65% | 1013.7 hPa | 0 mm | - | 0 W/m² | - |
| 1777854310 | 12.78° C | 65% | 1013.7 hPa | 0 mm | - | 0 W/m² | - |
| 1777853410 | 13.33° C | 66% | 1014 hPa | 0 mm | - | 0 W/m² | - |
| 1777852511 | 13.33° C | 65% | 1014.1 hPa | 0 mm | - | 0 W/m² | - |
| 1777851612 | 13.33° C | 62% | 1014.1 hPa | 0 mm | - | 0 W/m² | - |
| 1777850710 | 13.33° C | 61% | 1014.1 hPa | 0 mm | - | 0 W/m² | - |
| 1777849809 | 13.33° C | 61% | 1014.2 hPa | 0 mm | - | 0 W/m² | - |
| 1777848892 | 13.33° C | 61% | 1014.2 hPa | 0 mm | - | 0 W/m² | - |
* Rain latest hour (hover to see other rain measurements)
** Current wind speed in m/s (hover to see current wind gust speed)